• în Republica Moldova
  • Lista ţărilor
  • Pe 7 zile
  • Temperatura apei
  • Hartă satelitară
  • Meteo pe hartă
  • Widget-uri
  • user-avatar
    Intrare

    Meteo pe oră la Prutz

    Astăzi, 17 Octombrie, Miercuri

    Timp Temperatura Precipitaţii Vânt Presiune Umiditate
    00:00 +7°C° 0 mm 1 m/s 635 mmHg 83%
    01:00 +7°C° 0 mm 1 m/s 635 mmHg 83%
    02:00 +6°C° 0 mm 1 m/s 635 mmHg 83%
    03:00 +6°C° 0 mm 1 m/s 635 mmHg 83%
    04:00 +6°C° 0 mm 1 m/s 635 mmHg 83%
    05:00 +6°C° 0 mm 1 m/s 635 mmHg 83%
    06:00 +6°C° 0 mm 1 m/s 635 mmHg 82%
    07:00 +6°C° 0 mm 1 m/s 634 mmHg 82%
    08:00 +9°C° 0 mm 1 m/s 635 mmHg 72%
    09:00 +11°C° 0 mm 1 m/s 636 mmHg 62%
    10:00 +13°C° 0 mm 0 m/s 637 mmHg 52%
    11:00 +14°C° 0 mm 1 m/s 637 mmHg 50%
    12:00 +15°C° 0 mm 1 m/s 637 mmHg 47%
    13:00 +16°C° 0 mm 1 m/s 637 mmHg 45%
    14:00 +15°C° 0 mm 1 m/s 637 mmHg 49%
    15:00 +15°C° 0 mm 1 m/s 636 mmHg 53%
    16:00 +14°C° 0 mm 1 m/s 636 mmHg 56%
    17:00 +12°C° 0 mm 1 m/s 635 mmHg 67%
    18:00 +10°C° 0 mm 1 m/s 635 mmHg 77%
    19:00 +7°C° 0 mm 1 m/s 634 mmHg 87%
    20:00 +7°C° 0 mm 1 m/s 634 mmHg 86%
    21:00 +7°C° 0 mm 1 m/s 634 mmHg 86%
    22:00 +7°C° 0 mm 1 m/s 634 mmHg 85%
    23:00 +7°C° 0 mm 1 m/s 634 mmHg 85%

    Mâine, 18 Octombrie, Joi

    Timp Temperatura Precipitaţii Vânt Presiune Umiditate
    00:00 +7°C° 0 mm 1 m/s 634 mmHg 84%
    01:00 +7°C° 0 mm 1 m/s 634 mmHg 84%
    02:00 +6°C° 0 mm 1 m/s 634 mmHg 84%
    03:00 +6°C° 0 mm 1 m/s 634 mmHg 84%
    04:00 +6°C° 0 mm 1 m/s 634 mmHg 83%
    05:00 +6°C° 0 mm 1 m/s 634 mmHg 83%
    06:00 +6°C° 0 mm 1 m/s 634 mmHg 83%
    07:00 +6°C° 0 mm 1 m/s 634 mmHg 82%
    08:00 +8°C° 0 mm 1 m/s 635 mmHg 74%
    09:00 +11°C° 0 mm 1 m/s 635 mmHg 65%
    10:00 +13°C° 0 mm 1 m/s 636 mmHg 57%
    11:00 +14°C° 0 mm 1 m/s 636 mmHg 55%
    12:00 +14°C° 0 mm 1 m/s 636 mmHg 52%
    13:00 +15°C° 0 mm 1 m/s 636 mmHg 50%
    14:00 +14°C° 0 mm 1 m/s 636 mmHg 54%
    15:00 +14°C° 0 mm 2 m/s 636 mmHg 58%
    16:00 +13°C° 0 mm 2 m/s 635 mmHg 61%
    17:00 +11°C° 0 mm 1 m/s 635 mmHg 70%
    18:00 +9°C° 0 mm 1 m/s 635 mmHg 79%
    19:00 +8°C° 0 mm 1 m/s 634 mmHg 88%
    20:00 +7°C° 0 mm 1 m/s 634 mmHg 88%
    21:00 +7°C° 0 mm 1 m/s 635 mmHg 88%
    22:00 +7°C° 0 mm 1 m/s 635 mmHg 88%
    23:00 +7°C° 0 mm 1 m/s 635 mmHg 87%

    Poimâine, 19 Octombrie, Vineri

    Timp Temperatura Precipitaţii Vânt Presiune Umiditate
    00:00 +6°C° 0 mm 1 m/s 635 mmHg 86%
    01:00 +6°C° 0 mm 1 m/s 635 mmHg 86%
    02:00 +6°C° 0 mm 1 m/s 635 mmHg 85%
    03:00 +6°C° 0 mm 1 m/s 635 mmHg 84%
    04:00 +6°C° 0 mm 1 m/s 634 mmHg 84%
    05:00 +6°C° 0 mm 1 m/s 635 mmHg 83%
    06:00 +6°C° 0 mm 1 m/s 635 mmHg 83%
    07:00 +6°C° 0 mm 1 m/s 635 mmHg 83%
    08:00 +8°C° 0 mm 1 m/s 636 mmHg 72%
    09:00 +11°C° 0 mm 1 m/s 637 mmHg 62%
    10:00 +13°C° 0 mm 0 m/s 638 mmHg 52%
    11:00 +14°C° 0 mm 1 m/s 638 mmHg 49%
    12:00 +15°C° 0 mm 1 m/s 638 mmHg 46%
    13:00 +16°C° 0 mm 1 m/s 638 mmHg 44%
    14:00 +15°C° 0 mm 1 m/s 638 mmHg 49%
    15:00 +15°C° 0 mm 2 m/s 638 mmHg 53%
    16:00 +14°C° 0 mm 2 m/s 638 mmHg 58%
    17:00 +12°C° 0 mm 1 m/s 637 mmHg 68%
    18:00 +9°C° 0 mm 1 m/s 636 mmHg 78%
    19:00 +6°C° 0 mm 0 m/s 636 mmHg 87%
    20:00 +6°C° 0 mm 0 m/s 636 mmHg 87%
    21:00 +6°C° 0 mm 0 m/s 636 mmHg 87%
    22:00 +6°C° 0 mm 0 m/s 637 mmHg 86%
    23:00 +5°C° 0 mm 0 m/s 637 mmHg 86%

    20 Octombrie, Sâmbătă

    Timp Temperatura Precipitaţii Vânt Presiune Umiditate
    00:00 +5°C° 0 mm 0 m/s 637 mmHg 86%
    01:00 +5°C° 0 mm 0 m/s 637 mmHg 85%
    02:00 +5°C° 0 mm 0 m/s 637 mmHg 85%
    03:00 +6°C° 0 mm 1 m/s 637 mmHg 84%
    04:00 +6°C° 0 mm 1 m/s 637 mmHg 84%
    05:00 +6°C° 0 mm 1 m/s 637 mmHg 83%
    06:00 +6°C° 0 mm 1 m/s 637 mmHg 83%
    07:00 +6°C° 0 mm 1 m/s 637 mmHg 82%
    08:00 +8°C° 0 mm 1 m/s 638 mmHg 74%
    09:00 +10°C° 0 mm 1 m/s 639 mmHg 66%
    10:00 +12°C° 0 mm 1 m/s 640 mmHg 57%
    11:00 +13°C° 0 mm 1 m/s 640 mmHg 55%
    12:00 +13°C° 0 mm 2 m/s 640 mmHg 53%
    13:00 +14°C° 0 mm 2 m/s 640 mmHg 50%
    14:00 +13°C° 0 mm 2 m/s 640 mmHg 55%
    15:00 +13°C° 0 mm 2 m/s 640 mmHg 60%
    16:00 +12°C° 0 mm 2 m/s 639 mmHg 65%
    17:00 +9°C° 0 mm 2 m/s 639 mmHg 74%
    18:00 +9°C° 0 mm 1 m/s 639 mmHg 84%
    19:00 +7°C° 0 mm 1 m/s 639 mmHg 93%
    20:00 +7°C° 0 mm 1 m/s 639 mmHg 93%
    21:00 +6°C° 0 mm 1 m/s 639 mmHg 94%
    22:00 +6°C° 0 mm 1 m/s 639 mmHg 94%
    23:00 +6°C° 0 mm 1 m/s 639 mmHg 93%

    21 Octombrie, Duminică

    Timp Temperatura Precipitaţii Vânt Presiune Umiditate
    00:00 +5°C° 0 mm 1 m/s 638 mmHg 93%
    01:00 +5°C° 0 mm 1 m/s 638 mmHg 93%
    02:00 +4°C° 0 mm 1 m/s 638 mmHg 91%
    03:00 +4°C° 0 mm 1 m/s 638 mmHg 90%
    04:00 +4°C° 0 mm 1 m/s 638 mmHg 89%
    05:00 +4°C° 0 mm 1 m/s 638 mmHg 86%
    06:00 +4°C° 0 mm 1 m/s 638 mmHg 83%
    07:00 +4°C° 0 mm 1 m/s 637 mmHg 80%
    08:00 +6°C° 0 mm 1 m/s 638 mmHg 68%
    09:00 +9°C° 0 mm 1 m/s 639 mmHg 55%
    10:00 +12°C° 0 mm 1 m/s 640 mmHg 42%
    11:00 +13°C° 0 mm 1 m/s 640 mmHg 40%
    12:00 +13°C° 0 mm 1 m/s 640 mmHg 37%
    13:00 +14°C° 0 mm 2 m/s 640 mmHg 35%
    14:00 +14°C° 0 mm 2 m/s 639 mmHg 41%
    15:00 +13°C° 0 mm 2 m/s 639 mmHg 47%
    16:00 +12°C° 0 mm 2 m/s 638 mmHg 54%
    17:00 +9°C° 0 mm 2 m/s 638 mmHg 64%
    18:00 +7°C° 0 mm 1 m/s 637 mmHg 75%
    19:00 +5°C° 0 mm 1 m/s 637 mmHg 86%
    20:00 +5°C° 0 mm 1 m/s 637 mmHg 85%
    21:00 +5°C° 0 mm 1 m/s 637 mmHg 84%
    22:00 +5°C° 0 mm 1 m/s 637 mmHg 83%
    23:00 +5°C° 0 mm 1 m/s 637 mmHg 80%

    22 Octombrie, Luni

    Timp Temperatura Precipitaţii Vânt Presiune Umiditate
    00:00 +5°C° 0 mm 1 m/s 637 mmHg 77%
    01:00 +4°C° 0 mm 1 m/s 637 mmHg 74%
    02:00 +5°C° 0 mm 1 m/s 637 mmHg 72%
    03:00 +4°C° 0 mm 2 m/s 637 mmHg 69%
    04:00 +4°C° 0 mm 2 m/s 637 mmHg 67%
    05:00 +4°C° 0 mm 2 m/s 637 mmHg 67%
    06:00 +3°C° 0 mm 2 m/s 637 mmHg 67%
    07:00 +3°C° 0 mm 2 m/s 637 mmHg 66%
    08:00 +5°C° 0 mm 2 m/s 638 mmHg 61%
    09:00 +6°C° 0 mm 2 m/s 639 mmHg 56%
    10:00 +8°C° 0 mm 2 m/s 639 mmHg 51%
    11:00 +9°C° 0 mm 3 m/s 639 mmHg 51%
    12:00 +9°C° 0 mm 3 m/s 639 mmHg 51%
    13:00 +10°C° 0 mm 3 m/s 639 mmHg 51%
    14:00 +9°C° 0 mm 3 m/s 639 mmHg 55%
    15:00 +8°C° 0 mm 3 m/s 639 mmHg 60%
    16:00 +7°C° 0 mm 3 m/s 639 mmHg 64%
    17:00 +5°C° 0 mm 3 m/s 639 mmHg 73%
    18:00 +4°C° 0 mm 2 m/s 639 mmHg 81%
    19:00 +3°C° 0 mm 2 m/s 639 mmHg 90%
    20:00 +3°C° 0 mm 2 m/s 639 mmHg 90%
    21:00 +3°C° 0 mm 1 m/s 639 mmHg 91%
    22:00 +3°C° 0 mm 1 m/s 639 mmHg 92%
    23:00 +3°C° 0 mm 1 m/s 638 mmHg 91%
    Arată mai mult